Regional Weather Roundup
Issued by NWS

Home | Current Version | Previous Version | Graphics & Text | Print | Product List | Glossary On
Versions: 1 2 3 4 5 6 7 8 9 10 11 12 13 14 15 16 17 18 19 20 21 22 23 24 25 26 27 28 29 30 31 32 33 34 35 36 37 38 39 40 41 42 43 44 45 46 47 48 49 50
000
ASUS43 KFSD 280002
RWRSD

WEATHER ROUNDUP FOR SOUTH DAKOTA
NATIONAL WEATHER SERVICE SIOUX FALLS SD
700 PM CDT SUN JUL 27 2014

NOTE: "FAIR" INDICATES FEW OR NO CLOUDS BELOW 12,000 FEET WITH NO
SIGNIFICANT WEATHER AND/OR OBSTRUCTIONS TO VISIBILITY.


SDZ001>005-009-010-012>017-280100-
NORTHWEST AND NORTH CENTRAL SOUTH DAKOTA

CITY           SKY/WX    TMP DP  RH WIND       PRES   REMARKS
BUFFALO          N/A     76  52  43 NE12      30.22S
FAITH            N/A     75  53  46 N15       30.26F
MOBRIDGE       MOSUNNY   72  54  53 N10       30.23S
$$

SDZ012>016-024>037-041>051-057-063-072>074-280100-
SOUTHWEST AND SOUTH CENTRAL SOUTH DAKOTA

CITY           SKY/WX    TMP DP  RH WIND       PRES   REMARKS
RAPID CTY ARPT SUNNY     80  47  31 NE9       30.26F
PIERRE         SUNNY     76  53  44 N13       30.21F
CUSTER         SUNNY     72  48  42 E10       30.38F
ELLSWORTH AFB  SUNNY     82  46  29 NE9       30.26S
PHILIP         SUNNY     81  52  36 N15       30.22S
PINE RIDGE     SUNNY     80  51  36 NE8       30.26F
WINNER         FAIR      80  51  36 N17       30.21S
$$

SDZ004>011-016>023-039-040-280100-
NORTHEAST SOUTH DAKOTA

CITY           SKY/WX    TMP DP  RH WIND       PRES   REMARKS
ABERDEEN       CLOUDY    66  55  67 N14       30.21S
WATERTOWN      CLOUDY    64  56  75 N17G24    30.18S
SISSETON         N/A     68  57  68 N17G23    30.16S
$$

SDZ017-020-022-023-036>040-048>070-280100-
SOUTHEAST SOUTH DAKOTA

CITY           SKY/WX    TMP DP  RH WIND       PRES   REMARKS
SIOUX FALLS    MOSUNNY   68  55  63 N14G25    30.16S
HURON          MOSUNNY   69  54  58 N20G26    30.19S
CHAMBERLAIN    SUNNY     75  53  46 N12       30.20S
MITCHELL       PTSUNNY   71  56  58 N15       30.19S
YANKTON        MOSUNNY   73  57  56 N14G24    30.16R
$$

ABBREVIATIONS USED IN REMARKS
   TC - TEMPERATURE IN CELSIUS
  WCI - WIND CHILL INDEX
   HX - HEAT INDEX
  VSB - VISIBILITY




USA.gov is the U.S. government's official web portal to all federal, state and local government web resources and services.